Timestamp[UTC];2m Lufttemperatur [degC] (tas);Stations-Luftdruck [Pa] (ps);relative Luftfeuchtigkeit [%] (hurs);spezifische Luftfeuchtigkeit [kg/kg] (huss);Niederschlagsmenge [mm] (pr);Windgeschwindigkeit in 2m [m/s] (sfcWind);Windrichtung [deg];maximale Windgeschwindigkeit [m/s] (wsgsmax);u-Windkomponente [m/s] (uas);v-Windkomponente [m/s] (vas);Sonneneinstrahlung [W/m2];Blitzrate [n];Blitzentfernung [km];Bodenfeuchte in 5cm Tiefe [vol%];Bodenfeuchte in 15cm Tiefe [vol%];Bodenfeuchte in 30cm Tiefe [vol%];Bodenfeuchte in 60cm Tiefe [vol%];Bodentemperatur in 5cm Tiefe [degC];Bodentemperatur in 15cm Tiefe [degC];Bodentemperatur in 30cm Tiefe [degC];Bodentemperatur in 60cm Tiefe [degC];Matrixpotential in 30cm Tiefe [kPa];Bodenfeuchte aus CRNS [vol%] (mrso);Neutronen Anzahl [N/h]
2022-05-01 00:00:00;3,9;100542;91;0,0046;0,0;0,8;247;2,0;-0,28;-0,74;0;0;0;30,3;30,7;26,4;33,7;10,2;10,8;10,6;9,7;-11,0;26,3;1451
2022-05-01 01:00:00;2,8;100520;94;0,0043;0,0;0,9;210;1,7;-0,82;-0,43;0;0;0;30,3;30,7;26,4;33,7;9,9;10,6;10,5;9,7;-11,0;26,2;1435
2022-05-01 02:00:00;2,8;100512;93;0,0043;0,0;0,9;227;2,0;-0,59;-0,64;0;0;0;30,3;30,7;26,4;33,7;9,6;10,4;10,5;9,7;-11,0;26,0;1416
2022-05-01 03:00:00;2,2;100472;95;0,0042;0,0;1,1;214;2,2;-0,9;-0,51;0;0;0;30,3;30,7;26,4;33,7;9,4;10,2;10,4;9,7;-11,0;26,1;1473
2022-05-01 04:00:00;2,4;100470;94;0,0043;0,02;0,7;232;1,8;-0,45;-0,51;9;0;0;30,3;30,7;26,4;33,7;9,2;10,0;10,3;9,7;-11,0;26,3;1468
2022-05-01 05:00:00;3,6;100478;96;0,0047;0,02;1,1;231;2,2;-0,65;-0,84;94;0;0;30,3;30,7;26,4;33,7;9,1;9,9;10,3;9,7;-11,0;26,2;1478
2022-05-01 06:00:00;6,8;100515;94;0,0058;0,04;1,5;261;2,4;-0,22;-1,49;233;0;0;30,3;30,7;26,4;33,7;9,1;9,7;10,2;9,7;-11,0;26,1;1377
2022-05-01 07:00:00;9,4;100530;85;0,0062;0,0;1,6;324;3,1;1,22;-0,9;382;0;0;30,3;30,7;26,4;33,7;9,4;9,7;10,1;9,7;-11,0;26,3;1373
2022-05-01 08:00:00;10,8;100548;77;0,0062;0,0;1,4;280;3,1;1,4;-0,19;436;0;0;30,2;30,7;26,4;33,6;10,1;9,7;10,1;9,7;-11,0;26,3;1464
2022-05-01 09:00:00;11,9;100553;69;0,006;0,0;1,7;273;3,5;1,57;0,1;486;0;0;30,2;30,7;26,4;33,6;10,7;10,0;10,0;9,7;-11,0;26,5;1391
2022-05-01 10:00:00;13,2;100518;61;0,0057;0,0;2,0;102;4,5;1,89;0,38;629;0;0;30,1;30,7;26,4;33,6;11,4;10,2;10,0;9,7;-11,0;26,4;1407
2022-05-01 11:00:00;13,2;100480;57;0,0054;0,0;2,2;260;4,5;2,12;-0,44;463;0;0;30,0;30,7;26,4;33,6;12,0;10,6;10,0;9,7;-11,0;26,5;1443
2022-05-01 12:00:00;13,2;100447;57;0,0054;0,0;2,2;334;4,1;2,0;-0,97;366;0;0;29,9;30,6;26,3;33,6;12,4;10,9;10,0;9,6;-11,0;26,6;1441
2022-05-01 13:00:00;13,5;100415;56;0,0054;0,0;2,3;254;4,6;2,19;-0,64;352;0;0;29,8;30,6;26,3;33,6;12,5;11,2;10,0;9,6;-11,1;26,6;1572
2022-05-01 14:00:00;13,7;100368;56;0,0054;0,0;2,3;350;4,8;2,24;-0,41;343;0;0;29,7;30,6;26,3;33,6;12,7;11,4;10,1;9,6;-11,1;26,6;1456
2022-05-01 15:00:00;13,8;100358;55;0,0054;0,0;2,1;343;4,1;2,02;-0,63;249;0;0;29,7;30,6;26,3;33,6;12,8;11,6;10,2;9,6;-11,1;26,5;1452
2022-05-01 16:00:00;13,6;100330;55;0,0054;0,0;1,9;343;3,9;1,84;-0,56;162;0;0;29,6;30,6;26,3;33,6;12,7;11,7;10,3;9,6;-11,1;26,5;1459
2022-05-01 17:00:00;13,2;100302;57;0,0054;0,0;1,8;341;3,1;1,67;-0,56;109;0;0;29,6;30,6;26,3;33,6;12,5;11,7;10,3;9,6;-11,1;26,5;1464
2022-05-01 18:00:00;12,1;100323;62;0,0055;0,0;0,9;229;1,9;0,86;-0,19;25;0;0;29,6;30,6;26,3;33,6;12,2;11,7;10,4;9,6;-11,1;26,7;1430
2022-05-01 19:00:00;11,1;100337;65;0,0053;0,0;1,2;333;2,3;1,09;-0,54;0;0;0;29,6;30,6;26,3;33,6;11,9;11,7;10,5;9,6;-11,1;26,6;1455
2022-05-01 20:00:00;10,2;100342;68;0,0053;0,0;1,0;313;1,7;0,68;-0,61;0;0;0;29,6;30,6;26,3;33,6;11,5;11,5;10,5;9,6;-11,1;26,4;1480
2022-05-01 21:00:00;10,0;100335;70;0,0053;0,0;1,1;301;2,1;0,56;-0,96;0;0;0;29,5;30,6;26,3;33,6;11,2;11,4;10,5;9,6;-11,1;26,5;1476
2022-05-01 22:00:00;9,4;100303;77;0,0056;0,0;1,2;260;2,1;-0,2;-1,22;0;0;0;29,5;30,6;26,3;33,6;11,0;11,2;10,6;9,6;-11,1;26,4;1436
2022-05-01 23:00:00;8,3;100260;84;0,0057;0,0;1,0;250;1,8;-0,3;-0,98;0;0;0;29,5;30,6;26,3;33,6;10,9;11,1;10,5;9,6;-11,1;26,3;1565
2022-05-02 00:00:00;8,3;100212;84;0,0058;0,0;1,4;257;2,1;-0,29;-1,32;0;0;0;29,5;30,6;26,3;33,6;10,7;11,0;10,5;9,7;-11,1;26,3;1491
2022-05-02 01:00:00;8,0;100178;86;0,0058;0,0;0,7;242;1,9;-0,29;-0,65;0;0;0;29,5;30,6;26,3;33,6;10,6;10,9;10,5;9,7;-11,1;26,2;1458
2022-05-02 02:00:00;7,2;100147;88;0,0056;0,0;0,6;239;1,8;-0,26;-0,49;0;0;0;29,5;30,6;26,3;33,6;10,5;10,8;10,5;9,7;-11,1;26,7;1511
2022-05-02 03:00:00;6,9;100108;89;0,0056;0,0;0,7;236;1,4;-0,29;-0,58;0;0;0;29,5;30,6;26,3;33,6;10,3;10,7;10,5;9,7;-11,1;26,8;1519
2022-05-02 04:00:00;7,0;100095;90;0,0056;0,0;0,9;258;1,7;-0,18;-0,92;12;0;0;29,5;30,6;26,3;33,6;10,2;10,6;10,4;9,7;-11,1;26,7;1505
2022-05-02 05:00:00;7,6;100108;90;0,0058;0,0;1,4;264;2,2;-0,15;-1,36;68;0;0;29,5;30,6;26,3;33,6;10,1;10,5;10,4;9,7;-11,1;26,6;1440
2022-05-02 06:00:00;8,9;100126;84;0,006;0,0;1,3;287;2,2;0,38;-1,14;185;0;0;29,4;30,6;26,3;33,6;10,2;10,4;10,4;9,7;-11,1;26,5;1491
2022-05-02 07:00:00;10,6;100135;78;0,0062;0,0;1,6;314;3,0;1,09;-1,07;387;0;0;29,4;30,6;26,3;33,6;10,5;10,4;10,3;9,7;-11,1;26,3;1481
2022-05-02 08:00:00;12,2;100120;73;0,0064;0,0;2,0;294;3,8;0,8;-1,76;482;0;0;29,3;30,6;26,3;33,6;11,1;10,5;10,3;9,7;-11,1;26,2;1464
2022-05-02 09:00:00;13,8;100102;64;0,0063;0,0;2,6;322;4,9;2,0;-1,53;606;0;0;29,2;30,5;26,3;33,6;11,8;10,7;10,2;9,7;-11,1;26,3;1492
2022-05-02 10:00:00;15,4;100072;59;0,0064;0,0;2,2;176;5,3;2,18;-0,21;700;0;0;29,1;30,5;26,3;33,6;12,6;11,0;10,2;9,7;-11,1;26,3;1486
2022-05-02 11:00:00;16,3;100040;57;0,0065;0,0;2,4;332;5,5;2,02;-1,15;724;0;0;29,0;30,5;26,2;33,6;13,3;11,4;10,2;9,7;-11,2;26,1;1456
2022-05-02 12:00:00;17,1;100006;53;0,0064;0,0;2,0;269;5,3;1,89;-0,64;619;0;0;28,8;30,5;26,2;33,6;13,9;11,8;10,3;9,7;-11,2;26,3;1519
2022-05-02 13:00:00;17,9;99965;50;0,0064;0,0;2,6;256;5,6;2,45;-0,64;638;0;0;28,7;30,4;26,2;33,6;14,3;12,2;10,4;9,7;-11,2;26,2;1433
2022-05-02 14:00:00;18,3;99917;48;0,0063;0,0;2,8;338;5,7;2,56;-1,04;570;0;0;28,5;30,4;26,2;33,5;14,5;12,5;10,5;9,7;-11,2;26,1;1471
2022-05-02 15:00:00;18,4;99892;47;0,0062;0,0;2,8;344;5,6;2,64;-0,8;398;0;0;28,4;30,4;26,2;33,5;14,6;12,7;10,6;9,7;-11,2;25,9;1504
2022-05-02 16:00:00;18,2;99864;47;0,0061;0,0;2,8;342;5,0;2,63;-0,84;266;0;0;28,3;30,4;26,2;33,5;14,5;12,9;10,7;9,7;-11,2;25,9;1550
2022-05-02 17:00:00;17,5;99863;49;0,0061;0,0;3,1;338;4,8;2,84;-1,13;146;0;0;28,3;30,4;26,2;33,5;14,2;13,0;10,8;9,7;-11,2;25,7;1569
2022-05-02 18:00:00;15,7;99895;55;0,0061;0,0;2,1;334;3,2;1,91;-0,91;38;0;0;28,2;30,4;26,2;33,5;13,8;12,9;10,9;9,7;-11,2;25,5;1534
2022-05-02 19:00:00;14,1;99947;58;0,0058;0,0;2,3;329;3,9;1,96;-1,16;0;0;0;28,2;30,4;26,2;33,5;13,3;12,9;11,0;9,7;-11,2;25,5;1529
2022-05-02 20:00:00;13,9;99975;58;0,0058;0,0;2,2;336;3,7;1,98;-0,86;0;0;0;28,2;30,4;26,2;33,5;12,9;12,7;11,1;9,7;-11,2;25,7;1485
2022-05-02 21:00:00;12,5;99990;63;0,0056;0,0;1,5;313;2,7;1,05;-1,02;0;0;0;28,2;30,4;26,2;33,5;12,6;12,5;11,2;9,8;-11,2;25,6;1538
2022-05-02 22:00:00;10,6;99990;70;0,0055;0,0;1,6;267;2,4;-0,05;-1,62;0;0;0;28,2;30,4;26,2;33,5;12,2;12,3;11,2;9,8;-11,2;25,5;1533
2022-05-02 23:00:00;10,3;99987;70;0,0055;0,0;2,4;286;3,4;0,7;-2,29;0;0;0;28,2;30,4;26,2;33,5;11,9;12,1;11,2;9,8;-11,2;25,7;1532
2022-05-03 00:00:00;9,6;99965;72;0,0054;0,0;2,1;283;2,9;0,52;-2,0;0;0;0;28,2;30,4;26,2;33,5;11,7;12,0;11,2;9,8;-11,2;25,5;1545
2022-05-03 01:00:00;9,5;99940;75;0,0056;0,0;2,2;278;3,1;0,31;-2,17;0;0;0;28,1;30,4;26,2;33,5;11,5;11,8;11,2;9,9;-11,2;25,5;1522
2022-05-03 02:00:00;8,4;99930;80;0,0055;0,0;1,7;267;2,5;-0,06;-1,7;0;0;0;28,1;30,4;26,2;33,5;11,3;11,6;11,1;9,9;-11,2;25,4;1603
2022-05-03 03:00:00;8,0;99916;81;0,0055;0,0;2,2;281;3,4;0,46;-2,16;0;0;0;28,1;30,4;26,2;33,5;11,1;11,5;11,1;9,9;-11,2;25,2;1566
2022-05-03 04:00:00;7,8;99928;82;0,0054;0,0;2,3;278;3,4;0,34;-2,23;13;0;0;28,1;30,4;26,2;33,5;11,0;11,4;11,1;9,9;-11,2;25,0;1598
2022-05-03 05:00:00;7,8;99962;83;0,0055;0,0;2,6;281;4,0;0,52;-2,53;77;0;0;28,1;30,4;26,2;33,5;10,9;11,2;11,0;9,9;-11,2;25,0;1528
2022-05-03 06:00:00;8,9;99988;80;0,0057;0,0;3,2;292;5,0;1,18;-2,94;250;0;0;28,1;30,4;26,2;33,5;10,9;11,1;11,0;10,0;-11,3;25,0;1517
2022-05-03 07:00:00;10,3;100017;75;0,0059;0,0;3,2;308;4,9;2,01;-2,47;389;0;0;28,0;30,3;26,2;33,5;11,1;11,1;10,9;10,0;-11,3;25,0;1447
2022-05-03 08:00:00;11,9;100045;69;0,006;0,0;3,1;318;5,3;2,26;-2,03;493;0;0;28,0;30,3;26,2;33,5;11,6;11,1;10,9;10,0;-11,3;25,1;1505
2022-05-03 09:00:00;13,9;100062;61;0,006;0,0;3,0;329;5,4;2,53;-1,51;610;0;0;27,9;30,3;26,1;33,5;12,3;11,3;10,8;10,0;-11,3;24,9;1518
2022-05-03 10:00:00;15,4;100047;52;0,0057;0,0;3,4;341;6,4;3,22;-1,08;694;0;0;27,7;30,3;26,1;33,5;13,0;11,6;10,8;10,0;-11,4;24,9;1460
2022-05-03 11:00:00;16,4;100012;49;0,0056;0,0;3,7;338;6,6;3,39;-1,36;738;0;0;27,5;30,2;26,1;33,5;13,8;11,9;10,8;10,0;-11,4;24,9;1549
2022-05-03 12:00:00;17,0;99975;46;0,0056;0,0;3,6;335;6,7;3,27;-1,49;718;0;0;27,4;30,2;26,1;33,5;14,4;12,3;10,8;10,0;-11,4;24,8;1517
2022-05-03 13:00:00;17,7;99933;44;0,0055;0,0;3,2;337;6,0;2,91;-1,21;652;0;0;27,2;30,2;26,1;33,5;14,8;12,7;10,9;10,0;-11,4;24,8;1510
2022-05-03 14:00:00;17,9;99910;42;0,0054;0,0;3,0;256;5,9;2,82;-0,8;571;0;0;27,1;30,1;26,0;33,5;15,0;13,0;11,0;10,0;-11,4;24,8;1537
2022-05-03 15:00:00;17,8;99895;41;0,0052;0,0;3,5;334;6,6;3,18;-1,5;434;0;0;26,9;30,1;26,0;33,4;15,0;13,2;11,1;10,0;-11,5;24,8;1601
2022-05-03 16:00:00;17,5;99890;41;0,0051;0,0;3,5;334;5,8;3,15;-1,52;299;0;0;26,8;30,1;26,0;33,4;14,9;13,4;11,2;10,0;-11,5;24,9;1574
2022-05-03 17:00:00;16,9;99898;42;0,0051;0,0;3,3;329;5,1;2,84;-1,68;166;0;0;26,8;30,0;26,0;33,4;14,5;13,4;11,3;10,0;-11,5;24,8;1543
2022-05-03 18:00:00;15,3;99932;49;0,0053;0,0;1,4;319;2,2;1,06;-0,82;42;0;0;26,7;30,0;26,0;33,4;14,0;13,3;11,4;10,0;-11,5;24,8;1540
2022-05-03 19:00:00;13,1;99963;56;0,0053;0,0;0,9;280;1,2;0,17;-0,88;1;0;0;26,7;30,0;26,0;33,4;13,5;13,2;11,4;10,0;-11,5;24,9;1494
2022-05-03 20:00:00;11,4;99998;64;0,0054;0,0;1,5;276;2,0;0,15;-1,44;0;0;0;26,7;30,0;26,0;33,4;12,9;13,0;11,5;10,0;-11,5;24,3;1579
2022-05-03 21:00:00;10,1;100028;75;0,0057;0,0;2,3;281;3,3;0,47;-2,2;0;0;0;26,7;30,0;26,0;33,4;12,5;12,7;11,6;10,1;-11,5;24,3;1536
2022-05-03 22:00:00;9,6;100040;82;0,0061;0,0;2,1;286;3,1;0,62;-2,05;0;0;0;26,7;30,0;26,0;33,4;12,2;12,5;11,6;10,1;-11,5;24,3;1522
2022-05-03 23:00:00;8,6;100027;87;0,0061;0,0;1,7;272;2,4;0,12;-1,63;0;0;0;26,7;30,0;26,0;33,4;12,0;12,3;11,5;10,1;-11,5;24,2;1563
2022-05-04 00:00:00;7,7;100002;91;0,006;0,0;1,6;269;2,5;-0,0;-1,62;0;0;0;26,7;30,0;26,0;33,4;11,7;12,1;11,5;10,1;-11,5;24,1;1508
2022-05-04 01:00:00;6,2;99990;93;0,0055;0,0;0,7;232;2,2;-0,35;-0,64;0;0;0;26,6;30,0;26,0;33,4;11,4;11,9;11,5;10,1;-11,5;24,0;1524
2022-05-04 02:00:00;6,3;99985;94;0,0056;0,0;1,3;242;2,2;-0,47;-1,17;0;0;0;26,6;30,0;26,0;33,4;11,2;11,8;11,4;10,2;-11,5;24,0;1618
2022-05-04 03:00:00;6,3;99967;94;0,0056;0,0;1,1;243;2,5;-0,39;-1,02;0;0;0;26,6;30,0;26,0;33,4;11,0;11,6;11,4;10,2;-11,5;23,8;1538
2022-05-04 04:00:00;6,9;99979;94;0,0058;0,02;2,3;281;3,7;0,46;-2,22;11;0;0;26,6;30,0;26,0;33,4;10,9;11,4;11,3;10,2;-11,5;23,9;1593
2022-05-04 05:00:00;7,2;100010;93;0,0059;0,0;2,2;283;3,4;0,55;-2,12;76;0;0;26,6;30,0;26,0;33,4;10,8;11,3;11,3;10,2;-11,5;23,8;1553
2022-05-04 06:00:00;8,0;100015;92;0,0061;0,0;3,3;294;5,0;1,35;-2,96;200;0;0;26,6;30,0;26,0;33,4;10,8;11,2;11,2;10,2;-11,5;23,8;1464
2022-05-04 07:00:00;9,1;100033;88;0,0063;0,0;3,3;308;4,9;1,99;-2,55;326;0;0;26,6;30,0;26,0;33,4;11,1;11,2;11,1;10,2;-11,5;23,6;1655
2022-05-04 08:00:00;10,7;100058;80;0,0064;0,0;3,1;313;5,0;2,05;-2,24;454;0;0;26,5;30,0;26,0;33,4;11,6;11,2;11,1;10,2;-11,5;23,5;1507
2022-05-04 09:00:00;12,4;100050;74;0,0066;0,0;3,2;321;5,7;2,52;-1,95;647;0;0;26,4;30,0;26,0;33,4;12,2;11,4;11,0;10,2;-11,6;23,5;1508
2022-05-04 10:00:00;13,6;100054;70;0,0067;0,0;3,2;318;6,2;2,42;-2,16;624;0;0;26,3;29,9;25,9;33,4;13,0;11,6;11,0;10,2;-11,6;23,4;1483
2022-05-04 11:00:00;14,6;100015;66;0,0069;0,0;2,6;311;5,0;1,76;-1,95;726;0;0;26,2;29,9;25,9;33,4;13,6;12,0;11,0;10,2;-11,6;23,3;1566
2022-05-04 12:00:00;15,5;99980;63;0,0069;0,0;2,7;328;4,9;2,3;-1,41;582;0;0;26,0;29,8;25,9;33,4;14,2;12,3;11,0;10,2;-11,6;23,5;1540
2022-05-04 13:00:00;15,8;99960;59;0,0066;0,0;2,7;336;5,1;2,49;-1,06;458;0;0;25,9;29,8;25,9;33,4;14,5;12,7;11,1;10,2;-11,7;23,5;1509
2022-05-04 14:00:00;17,1;99913;50;0,0061;0,0;4,3;324;7,4;3,5;-2,53;528;0;0;25,7;29,8;25,9;33,4;14,6;12,9;11,1;10,2;-11,7;23,5;1609
2022-05-04 15:00:00;17,1;99908;40;0,0049;0,0;4,0;336;7,3;3,68;-1,64;385;0;0;25,6;29,7;25,9;33,4;14,7;13,1;11,2;10,2;-11,7;23,8;1549
2022-05-04 16:00:00;17,2;99922;40;0,0049;0,0;3,6;332;6,1;3,17;-1,65;299;0;0;25,5;29,7;25,8;33,3;14,5;13,2;11,3;10,2;-11,8;23,8;1586
2022-05-04 17:00:00;16,5;99947;42;0,0049;0,0;3,0;336;4,9;2,72;-1,2;153;0;0;25,4;29,7;25,8;33,3;14,2;13,3;11,4;10,2;-11,8;23,7;1543
2022-05-04 18:00:00;15,1;99982;46;0,0049;0,0;1,3;344;3,0;1,23;-0,39;47;0;0;25,4;29,7;25,8;33,3;13,7;13,2;11,5;10,2;-11,8;23,7;1602
2022-05-04 19:00:00;12,1;100015;58;0,0051;0,0;0,5;160;0,9;-0,39;0,11;1;0;0;25,4;29,7;25,8;33,3;13,2;13,1;11,5;10,2;-11,8;23,4;1528
2022-05-04 20:00:00;8,9;100047;72;0,0051;0,0;0,5;231;1,6;-0,28;-0,36;0;0;0;25,4;29,7;25,8;33,3;12,7;12,8;11,6;10,2;-11,8;23,7;1591
2022-05-04 21:00:00;7,1;100085;80;0,005;0,0;0,7;222;2,0;-0,49;-0,4;0;0;0;25,4;29,7;25,8;33,3;12,2;12,6;11,6;10,2;-11,7;23,5;1551
2022-05-04 22:00:00;6,4;100120;83;0,0049;0,0;0,5;230;1,5;-0,32;-0,37;0;0;0;25,4;29,6;25,8;33,3;11,9;12,4;11,6;10,2;-11,8;23,5;1572
2022-05-04 23:00:00;6,2;100130;84;0,0049;0,0;0,7;229;1,9;-0,48;-0,54;0;0;0;25,4;29,6;25,8;33,3;11,6;12,1;11,6;10,3;-11,8;23,4;1488
2022-05-05 00:00:00;5,7;100122;87;0,0049;0,0;1,1;199;2,1;-1,03;-0,38;0;0;0;25,4;29,6;25,8;33,3;11,3;11,9;11,6;10,3;-11,8;23,5;1491
2022-05-05 01:00:00;5,8;100126;87;0,005;0,0;1,2;211;2,9;-1,0;-0,55;0;0;0;25,4;29,6;25,8;33,3;11,1;11,7;11,5;10,3;-11,8;23,5;1524
2022-05-05 02:00:00;5,4;100155;88;0,0049;0,0;0,9;220;2,1;-0,69;-0,53;0;0;0;25,4;29,6;25,8;33,3;10,9;11,6;11,5;10,3;-11,8;23,3;1454
2022-05-05 03:00:00;6,7;100172;87;0,0053;0,0;1,1;233;2,4;-0,56;-0,84;0;0;0;25,4;29,6;25,8;33,3;10,7;11,4;11,4;10,3;-11,8;23,4;1532
2022-05-05 04:00:00;6,7;100195;89;0,0054;0,0;0,7;225;1,9;-0,49;-0,47;16;0;0;25,3;29,6;25,8;33,3;10,7;11,2;11,3;10,3;-11,8;23,3;1581
2022-05-05 05:00:00;7,5;100226;88;0,0057;0,0;1,3;252;2,4;-0,33;-1,23;81;0;0;25,3;29,6;25,8;33,3;10,6;11,1;11,3;10,3;-11,8;23,1;1551
2022-05-05 06:00:00;10,6;100277;81;0,0064;0,0;2,4;257;3,7;-0,52;-2,33;188;0;0;25,3;29,6;25,8;33,3;10,7;11,0;11,2;10,3;-11,8;23,2;1561
2022-05-05 07:00:00;12,6;100330;76;0,0069;0,0;2,4;304;3,8;1,34;-1,79;250;0;0;25,3;29,6;25,8;33,3;11,0;11,0;11,1;10,3;-11,8;23,2;1475
2022-05-05 08:00:00;13,4;100358;72;0,0069;0,0;2,6;321;4,0;2,05;-1,64;387;0;0;25,3;29,6;25,8;33,3;11,4;11,1;11,1;10,3;-11,8;23,3;1546
2022-05-05 09:00:00;14,8;100380;65;0,0068;0,0;2,0;327;4,1;1,61;-1,16;533;0;0;25,2;29,6;25,8;33,3;12,1;11,2;11,0;10,3;-11,8;23,4;1486
2022-05-05 10:00:00;16,3;100380;58;0,0067;0,0;1,7;32;4,0;1,15;0,74;685;0;0;25,1;29,5;25,8;33,3;12,8;11,5;11,0;10,3;-11,9;23,6;1466
2022-05-05 11:00:00;16,9;100380;54;0,0065;0,0;1,9;209;4,5;1,76;-0,31;700;0;0;24,9;29,5;25,7;33,3;13,6;11,8;11,0;10,3;-11,9;23,9;1508
2022-05-05 12:00:00;17,5;100388;50;0,0062;0,0;2,2;338;4,6;2,05;-0,8;625;0;0;24,8;29,4;25,7;33,3;14,2;12,3;11,0;10,3;-12,0;23,9;1496
2022-05-05 13:00:00;18,0;100390;48;0,0062;0,0;2,5;225;4,8;2,31;-0,6;574;0;0;24,6;29,4;25,7;33,3;14,6;12,6;11,1;10,3;-12,0;24,1;1526
2022-05-05 14:00:00;17,5;100398;50;0,0062;0,0;2,5;275;4,9;2,32;-0,6;261;0;0;24,5;29,3;25,7;33,3;14,6;12,9;11,1;10,3;-12,0;24,2;1509
2022-05-05 15:00:00;17,4;100402;50;0,0061;0,0;2,2;259;4,2;2,07;-0,48;252;0;0;24,5;29,3;25,7;33,3;14,4;13,1;11,2;10,3;-12,0;24,1;1533
2022-05-05 16:00:00;16,5;100413;54;0,0063;0,39;1,6;234;3,6;1,58;-0,17;183;0;0;27,2;29,3;25,7;33,3;14,0;13,2;11,4;10,3;-12,1;24,1;1563
2022-05-05 17:00:00;12,0;100430;83;0,0072;7,6;2,6;331;4,4;2,19;-1,33;145;0;0;30,6;29,3;25,7;33,3;13,6;13,1;11,5;10,3;-12,0;24,4;1449
2022-05-05 18:00:00;11,8;100475;83;0,0071;0,55;3,3;314;4,4;2,31;-2,33;28;0;0;30,6;29,3;25,7;33,3;13,3;13,0;11,6;10,3;-12,1;24,5;1492
2022-05-05 19:00:00;12,0;100530;78;0,0068;0,0;1,8;299;2,6;0,91;-1,59;1;0;0;30,6;29,3;25,7;33,3;13,1;12,9;11,6;10,3;-12,1;24,7;1416
2022-05-05 20:00:00;11,2;100592;80;0,0066;0,0;0,7;255;1,3;-0,05;-0,66;0;0;0;30,6;29,3;25,7;33,3;12,9;12,9;11,6;10,3;-12,0;24,8;1452
2022-05-05 21:00:00;9,4;100610;85;0,0062;0,0;0,8;202;1,8;-0,73;-0,3;0;0;0;30,5;29,3;25,7;33,3;12,7;12,7;11,6;10,3;-12,0;25,1;1384
2022-05-05 22:00:00;8,3;100628;88;0,006;0,0;0,7;222;1,6;-0,5;-0,44;0;0;0;30,5;29,3;25,7;33,3;12,4;12,5;11,7;10,3;-12,0;25,2;1387
2022-05-05 23:00:00;7,6;100640;89;0,0058;0,0;0,7;223;1,6;-0,55;-0,46;0;0;0;30,4;29,3;25,7;33,3;12,1;12,4;11,6;10,3;-12,0;25,2;1435
2022-05-06 00:00:00;7,1;100640;91;0,0057;0,0;0,5;269;1,3;0,03;-0,51;0;0;0;30,4;29,3;25,7;33,3;11,8;12,2;11,6;10,4;-12,0;25,4;1339
2022-05-06 01:00:00;6,6;100632;92;0,0056;0,0;0,5;256;1,2;-0,12;-0,38;0;0;0;30,3;29,3;25,7;33,2;11,5;12,0;11,6;10,4;-12,0;25,5;1419
2022-05-06 02:00:00;6,4;100636;93;0,0055;0,06;0,5;293;1,4;0,2;-0,45;0;0;0;30,3;29,3;25,7;33,2;11,3;11,9;11,6;10,4;-12,0;25,8;1409
2022-05-06 03:00:00;5,5;100617;94;0,0053;0,02;0,5;270;1,2;-0,02;-0,51;0;0;0;30,3;29,3;25,6;33,2;11,1;11,7;11,5;10,4;-12,1;26,0;1470
2022-05-06 04:00:00;5,6;100637;94;0,0053;0,02;0,4;250;1,5;-0,14;-0,29;24;0;0;30,2;29,3;25,6;33,2;10,8;11,5;11,5;10,4;-12,1;26,3;1410
2022-05-06 05:00:00;7,8;100706;96;0,0063;0,02;1,0;258;2,0;-0,18;-0,89;149;0;0;30,2;29,3;25,6;33,2;10,7;11,3;11,4;10,4;-12,1;26,4;1458
2022-05-06 06:00:00;10,4;100733;91;0,0071;0,0;1,3;283;2,1;0,29;-1,3;268;0;0;30,2;29,3;25,6;33,2;10,8;11,2;11,3;10,4;-12,1;26,5;1386
2022-05-06 07:00:00;13,0;100752;83;0,0077;0,0;1,1;318;2,4;0,72;-0,72;408;0;0;30,2;29,3;25,6;33,2;11,1;11,2;11,3;10,4;-12,1;26,7;1380
2022-05-06 08:00:00;14,9;100748;74;0,0077;0,0;1,6;325;3,1;1,29;-0,92;553;0;0;30,2;29,3;25,6;33,2;11,8;11,2;11,2;10,4;-12,1;26,5;1386
2022-05-06 09:00:00;16,4;100737;63;0,0072;0,0;1,8;214;3,8;1,4;-0,8;653;0;0;30,1;29,3;25,6;33,2;12,7;11,5;11,2;10,4;-12,1;26,8;1422
2022-05-06 10:00:00;17,7;100720;53;0,0067;0,0;1,7;105;4,2;1,62;0,42;732;0;0;29,8;29,3;25,6;33,2;13,6;11,9;11,1;10,4;-12,1;26,7;1427
2022-05-06 11:00:00;18,7;100698;48;0,0065;0,0;2,1;52;4,6;1,14;1,56;771;0;0;29,6;29,3;25,6;33,2;14,4;12,3;11,1;10,4;-12,1;26,6;1415
2022-05-06 12:00:00;18,9;100667;48;0,0065;0,0;2,1;120;4,3;1,71;-0,04;716;0;0;29,5;29,2;25,6;33,2;15,0;12,8;11,2;10,4;-12,2;26,4;1442
2022-05-06 13:00:00;18,8;100655;48;0,0065;0,0;2,3;268;4,7;1,75;-0,32;538;0;0;29,3;29,2;25,6;33,2;15,3;13,2;11,3;10,4;-12,2;26,1;1388
2022-05-06 14:00:00;19,8;100620;46;0,0066;0,0;2,2;254;4,7;1,98;-0,56;596;0;0;29,2;29,2;25,6;33,2;15,5;13,5;11,3;10,4;-12,2;26,0;1448
2022-05-06 15:00:00;19,7;100602;44;0,0063;0,0;2,0;337;3,9;1,79;-0,74;434;0;0;29,1;29,2;25,5;33,2;15,7;13,8;11,5;10,4;-12,2;26,0;1419
2022-05-06 16:00:00;19,6;100593;45;0,0064;0,0;2,5;330;4,6;2,15;-1,24;288;0;0;29,0;29,2;25,5;33,2;15,7;13,9;11,6;10,4;-12,3;26,2;1499
2022-05-06 17:00:00;19,0;100590;49;0,0067;0,0;1,8;336;3,0;1,62;-0,72;156;0;0;29,0;29,2;25,5;33,2;15,4;14,0;11,7;10,4;-12,2;26,1;1441
2022-05-06 18:00:00;17,5;100600;54;0,0066;0,0;1,0;316;1,8;0,77;-0,6;39;0;0;29,0;29,2;25,5;33,2;15,0;14,0;11,8;10,4;-12,2;26,2;1438
2022-05-06 19:00:00;15,0;100630;60;0,0064;0,0;0,6;270;1,5;0,03;-0,57;0;0;0;29,0;29,2;25,5;33,2;14,5;13,9;11,9;10,4;-12,2;26,1;1475
2022-05-06 20:00:00;11,7;100630;74;0,0062;0,0;1,0;210;1,9;-0,83;-0,44;0;0;0;28,9;29,2;25,5;33,2;13,9;13,8;12,0;10,4;-12,2;26,0;1383
2022-05-06 21:00:00;10,4;100602;78;0,0061;0,0;1,0;224;2,3;-0,69;-0,61;0;0;0;28,9;29,2;25,5;33,2;13,5;13,5;12,1;10,5;-12,2;26,0;1435
2022-05-06 22:00:00;9,4;100587;84;0,0061;0,0;1,0;253;2,2;-0,28;-0,94;0;0;0;28,9;29,2;25,5;33,2;13,2;13,3;12,1;10,5;-12,2;26,0;1409
2022-05-06 23:00:00;9,0;100575;84;0,0059;0,0;0,8;250;1,8;-0,25;-0,74;0;0;0;28,9;29,2;25,5;33,2;12,9;13,1;12,1;10,5;-12,2;25,9;1521
2022-05-07 00:00:00;8,9;100542;83;0,0059;0,0;0,7;226;1,9;-0,49;-0,5;0;0;0;28,9;29,2;25,5;33,2;12,6;12,9;12,1;10,5;-12,2;25,9;1480
2022-05-07 01:00:00;8,6;100518;84;0,0058;0,0;0,8;246;2,1;-0,29;-0,69;0;0;0;28,8;29,2;25,5;33,2;12,4;12,7;12,1;10,6;-12,2;26,2;1461
2022-05-07 02:00:00;8,0;100492;88;0,0058;0,0;0,8;254;2,0;-0,22;-0,8;0;0;0;28,8;29,2;25,5;33,2;12,2;12,5;12,0;10,6;-12,2;26,3;1469
2022-05-07 03:00:00;7,5;100480;89;0,0057;0,0;0,6;244;1,6;-0,24;-0,5;0;0;0;28,8;29,2;25,5;33,2;11,9;12,4;12,0;10,6;-12,2;26,3;1410
2022-05-07 04:00:00;7,9;100480;88;0,0058;0,0;0,7;224;2,2;-0,5;-0,5;19;0;0;28,8;29,2;25,5;33,2;11,8;12,2;11,9;10,6;-12,2;26,2;1486
2022-05-07 05:00:00;9,7;100508;88;0,0066;0,0;1,1;255;2,0;-0,28;-1,1;120;0;0;28,8;29,2;25,5;33,2;11,7;12,1;11,9;10,6;-12,2;26,3;1448
2022-05-07 06:00:00;12,5;100527;82;0,0074;0,0;1,7;254;2,8;-0,46;-1,61;263;0;0;28,8;29,2;25,5;33,2;11,7;12,0;11,8;10,7;-12,2;26,2;1442
2022-05-07 07:00:00;15,9;100530;69;0,0077;0,0;1,3;290;2,1;0,15;-1,08;402;0;0;28,7;29,2;25,5;33,2;12,1;11,9;11,8;10,7;-12,3;26,1;1442
2022-05-07 08:00:00;18,3;100532;56;0,0074;0,0;0,9;72;2,2;0,19;0,77;496;0;0;28,6;29,2;25,5;33,2;12,7;12,0;11,7;10,7;-12,3;26,0;1416
2022-05-07 09:00:00;19,0;100530;55;0,0075;0,0;1,4;61;2,7;0,57;1,19;579;0;0;28,5;29,1;25,5;33,1;13,4;12,2;11,6;10,7;-12,3;25,9;1453
2022-05-07 10:00:00;19,9;100505;49;0,0071;0,0;1,5;146;3,3;0,26;0,78;686;0;0;28,3;29,1;25,5;33,1;14,2;12,6;11,6;10,7;-12,4;25,9;1467
2022-05-07 11:00:00;20,6;100480;48;0,0071;0,0;1,7;119;3,9;1,24;0,62;762;0;0;28,1;29,1;25,4;33,1;15,0;12,9;11,7;10,7;-12,4;25,8;1420
2022-05-07 12:00:00;20,5;100458;46;0,0068;0,0;2,0;18;4,0;1,84;0,65;565;0;0;28,0;29,0;25,4;33,1;15,5;13,4;11,7;10,7;-12,4;25,9;1361
2022-05-07 13:00:00;20,8;100438;45;0,0068;0,0;1,4;110;2,9;1,01;0,38;523;0;0;27,8;29,0;25,4;33,1;15,7;13,8;11,7;10,7;-12,5;26,0;1387
2022-05-07 14:00:00;19,5;100440;56;0,0079;0,0;4,9;294;7,5;1,97;-4,48;441;0;0;27,7;29,0;25,4;33,1;15,9;14,0;11,9;10,7;-12,5;25,9;1443
2022-05-07 15:00:00;18,3;100433;61;0,0079;0,0;4,2;274;6,3;0,34;-4,16;313;0;0;27,6;29,0;25,4;33,1;15,8;14,2;12,0;10,6;-12,5;26,0;1461
2022-05-07 16:00:00;18,9;100420;56;0,0076;0,0;3,1;282;4,3;0,66;-2,98;261;0;0;27,6;29,0;25,4;33,1;15,7;14,3;12,1;10,7;-12,5;25,9;1461
2022-05-07 17:00:00;18,4;100455;59;0,0077;0,0;3,9;307;6,6;2,43;-2,91;124;0;0;27,5;29,0;25,4;33,1;15,4;14,4;12,2;10,7;-12,5;26,0;1490
2022-05-07 18:00:00;16,3;100523;70;0,008;0,0;3,1;324;5,5;2,5;-1,72;34;0;0;27,5;29,0;25,4;33,1;15,1;14,3;12,3;10,7;-12,5;25,9;1470
2022-05-07 19:00:00;14,6;100574;76;0,0079;0,0;1,7;300;2,7;0,9;-1,44;2;0;0;27,5;29,0;25,4;33,1;14,7;14,2;12,4;10,7;-12,5;25,9;1481
2022-05-07 20:00:00;12,5;100618;82;0,0074;0,0;1,4;272;2,0;0,06;-1,38;0;0;0;27,5;29,0;25,4;33,1;14,3;14,1;12,4;10,7;-12,5;25,9;1406
2022-05-07 21:00:00;11,2;100620;88;0,0072;0,0;0,9;249;1,6;-0,12;-0,8;0;0;0;27,4;29,0;25,4;33,1;13,9;13,9;12,5;10,7;-12,5;25,8;1442
2022-05-07 22:00:00;9,7;100620;91;0,0068;0,0;0,7;230;1,7;-0,42;-0,49;0;0;0;27,4;29,0;25,4;33,1;13,6;13,7;12,5;10,8;-12,5;25,9;1439
2022-05-07 23:00:00;9,2;100635;94;0,0067;0,0;0,8;208;1,7;-0,7;-0,37;0;0;0;27,4;29,0;25,4;33,1;13,2;13,5;12,5;10,8;-12,5;26,0;1445
2022-05-08 00:00:00;9,1;100640;93;0,0066;0,0;0,8;258;1,8;-0,17;-0,8;0;0;0;27,4;28,9;25,4;33,1;12,9;13,3;12,4;10,8;-12,5;25,8;1453
2022-05-08 01:00:00;9,7;100635;94;0,007;0,04;1,4;265;2,2;-0,1;-1,43;0;0;0;27,4;28,9;25,4;33,1;12,7;13,1;12,4;10,8;-12,5;25,5;1478
2022-05-08 02:00:00;9,7;100652;96;0,0071;0,04;1,6;267;2,4;-0,08;-1,62;0;0;0;27,4;28,9;25,4;33,1;12,5;12,9;12,4;10,8;-12,5;25,5;1426
2022-05-08 03:00:00;10,6;100677;95;0,0075;0,02;1,6;287;2,4;0,48;-1,49;0;0;0;27,4;28,9;25,4;33,1;12,4;12,7;12,3;10,9;-12,5;25,4;1404
2022-05-08 04:00:00;11,2;100690;96;0,0079;0,0;1,8;314;2,6;1,27;-1,28;8;0;0;27,3;28,9;25,4;33,1;12,4;12,6;12,3;10,9;-12,5;25,4;1401
2022-05-08 05:00:00;11,2;100730;96;0,0079;0,0;2,4;336;4,0;2,21;-0,97;52;0;0;27,3;29,0;25,4;33,1;12,4;12,6;12,2;10,9;-12,5;25,5;1456
2022-05-08 06:00:00;11,0;100777;94;0,0076;0,0;2,2;230;4,0;2,07;-0,39;94;0;0;27,3;29,0;25,4;33,1;12,5;12,5;12,2;10,9;-12,5;25,6;1428
2022-05-08 07:00:00;11,2;100816;93;0,0076;0,0;2,0;343;4,1;1,93;-0,55;150;0;0;27,3;29,0;25,4;33,1;12,6;12,5;12,1;10,9;-12,5;25,7;1423